Warning: Javascript must be enabled to use all the features on this page!


Page Loading - Please Wait...

* We've detected you're using a mobile device. Find our Next Generation Station Page here.
Click to hideNews Bulletins

Peak Streamflow for Idaho

Click to hide state-specific text

USGS 12395500 PEND OREILLE RIVER AT NEWPORT WA

Bonner County, Idaho
Hydrologic Unit Code 17010216
Latitude  48°10'56", Longitude 117°02'03" NAD83
Drainage area 24,200  square miles
Contributing drainage area 24,200  square miles
Gage datum 1,999.70 feet above NGVD29
Output formats
Table
Graph
Tab-separated file
peakfq (watstore) format
Reselect output format
Water
Year
Date Gage
Height
(feet)
Stream-
flow
(cfs)
1894 1894-06 64.00Bd 200,0005,7,Bd
1904 1904-06-02   88,2001,5
1905 1905-06-17   50,8001,5
1906 1906-06-09   43,8001,5
1907 1907-06-15   95,2001,5
1908 1908-06-16   124,0001,5
1909 1909-06-23   104,0001,5
1910 1910-05-15   75,5001,5
1911 1911-06-21   77,4001,5
1912 1912-06-14   89,0001,5
1913 1913-06-15   136,0001,5
1914 1914-05   67,4001,5,Bd
1915 1915-05   42,5001,5,Bd
1916 1916-07   131,0001,5,Bd
1917 1917-06   119,0001,5,Bd
1918 1918-06   98,2001,5,Bd
1919 1919-06   76,9001,5,Bd
1920 1920-06   81,8001,5,Bd
1921 1921-06-14   109,0001,5
1922 1922-06   106,0001,5,Bd
1923 1923-06   90,7001,5,Bd
1924 1924-05   80,3001,5,Bd
1925 1925-05   112,0001,5,Bd
1926 1926-05   49,4001,5,Bd
1927 1927-06   131,0001,5,Bd
1928 1928-06   135,0001,5,Bd
1929 1929-06-18 15.36 73,2005
1930 1930-06-05 12.29 50,1005
1931 1931-05-28 12.40 50,8005
1932 1932-05-27 18.77 98,0005
1933 1933-06-21 24.18 136,0005
1934 1934-05-12 18.20 91,2005
1935 1935-06-09 17.13 83,5005
1936 1936-05-21 2057.56 86,4005
1937 1937-06-07 2053.696 59,1005
1938 1938-06-09 2058.59 93,4005
1939 1939-05-23 2056.08 75,8005
1940 1940-05-30 53.12 55,1005
1941 1941-06-08 49.45 30,2005
1953 1953-06-17 46.76 96,5006
1954 1954-05-29 47.66 103,0006
1955 1955-06-20 44.54 86,7006
1956 1956-06-04 51.73 127,0006
1957 1957-05-26 46.64 97,9006
1958 1958-05-30 46.23 94,1006
1959 1959-06-25 47.15 100,0006
1960 1960-06-07 42.49 71,0006
1961 1961-06-08 49.50 115,0006
1962 1962-06-03 44.551,2 81,9006
1963 1963-07-03 40.671,2 60,4006
1964 1964-06-18 50.80 120,0006
1965 1965-06-05 45.12 86,2006
1966 1966-05-10 39.992 56,6006
1967 1967-06-11 48.34 106,0006
1968 1968-06-26 42.44 65,9006
1969 1969-05-20   85,0006
1970 1970-06-10   98,9006
1971 1971-06-03   105,0006
1972 1972-06-12 53.01 136,0006
1973 1972-12-05 36.122 29,8006
1974 1974-06-23   133,0006
1975 1975-06-25   102,0006
1976 1976-05-22   98,3006
1977 1976-10-06   30,5006
1978 1978-05-30   65,6006
1979 1979-05-29   76,0006
1980 1980-05-29   98,3006
1981 1981-05-28   102,0006
1982 1982-06-23   106,0006
1983 1983-05-31 43.80 71,3006
1984 1984-06-25   70,4006
1985 1985-06-11   65,0006
1986 1986-06-02   74,1006
1987 1987-05-14 39.27 43,8006
1988 1988-04-21 38.292 38,2006
1989 1989-05-16   62,2006
1990 1990-06-13   78,5006
1991 1991-06-12   88,6006
1992 1992-05-08   31,4006
1993 1993-05-22   54,0006
1994 1994-04-28   30,2006
1995 1995-06-12 43.13 64,7006
1996 1996-06-14 47.212 96,2006
1997 1997-06-05 53.442 132,0006
1998 1998-06-01 43.71 71,3006
1999 1999-06-21 44.212 78,4006
2000 2000-05-08 40.94 55,8006
2001 2001-05-03   29,5006
2002 2002-06-09   95,4006
2003 2003-06-05 43.66 70,0006
2004 2004-05-30 40.472 50,5006
2005 2005-06-09 44.20 74,5006
2006 2006-05-26 45.69 92,9006
2007 2007-06-09   55,4006
2008 2008-06-04 46.992 98,5006
2009 2009-06-03 43.772 75,8006
2010 2010-06-08 43.572 75,9006
2011 2011-06-18 51.252 123,0006
2012 2012-06-27 46.26 96,5006
2013 2013-05-17 43.83 76,1006
2014 2014-06-01 45.96 93,9006
2015 2015-04-09 38.812 42,7006
2016 2016-05-27 40.642 51,0006
2017 2017-06-07 46.292 93,3006
2018 2018-05-28   121,0006
2019 2019-05-18 42.85 68,9006
2020 2020-06-04   92,3006
2021 2021-06-05   68,2006
?
  Peak Gage-Height Qualification Codes.
?
  Peak Streamflow Qualification Codes.